Weather observations for the past three days for
Santa Monica, Santa Monica Municipal Airport
Imperial (Metric)
Date Time (pdt) Wind (mph) Vis. (mi.) Weather Sky Cond. Temperature (ºF) Relative Humidity Wind Chill (°F) Heat Index (°F) Pressure Precipitation (in)
Air Dwpt 6 hour altimeter (in) sea level (mb) 1 hr 3 hr 6 hr
Max. Min.
20 10:51 S 8 10.00 Fair CLR 71.1 61 73 62.1 71% 29.96 1014.4
20 09:51 S 5 10.00 Fair CLR 71.1 61 71% 29.95 1014.1
20 08:51 S 6 10.00 Fair CLR 68 61 78% 29.96 1014.3
20 07:51 Calm 7.00 Mostly Cloudy BKN003 63 61 93% 29.95 1014.2
20 06:51 S 5 0.50 Fog VV002 62.1 61 96% 29.95 1014.0
20 05:51 Vrbl 3 0.50 Fog VV002 62.1 60.1 93% 29.92 1013.0
20 04:51 Calm 0.75 Fog/Mist VV002 62.1 60.1 64 62.1 93% 29.92 1012.8
20 03:51 Calm 0.50 Fog VV001 62.1 61 96% 29.92 1013.0
20 02:51 S 3 4.00 Fog/Mist OVC002 63 61 93% 29.92 1013.0
20 01:50 S 3 0.75 Fog/Mist VV002 63 61 93% 29.93 1013.2
20 00:51 Calm 0.75 Fog/Mist VV002 63 62.1 97% 29.94 1013.6
19 23:51 Calm 1.00 Fog/Mist VV002 63 62.1 97% 29.95 1013.8
19 22:51 Calm 0.75 Fog/Mist OVC002 64 62.1 71.1 64 93% 29.95 1013.8
19 21:51 Calm 3.00 Fog/Mist OVC002 64 62.1 93% 29.95 1014.0
19 20:51 SW 5 4.00 Fog/Mist OVC002 64.9 63 93% 29.94 1013.7
19 19:51 SW 5 7.00 Overcast OVC005 66 63 90% 29.93 1013.4
19 18:51 SW 8 10.00 Overcast OVC005 68 63 84% 29.92 1012.8
19 17:51 SW 8 9.00 Overcast OVC005 69.1 64 84% 29.93 1013.2
19 16:51 SW 9 10.00 Mostly Cloudy BKN007 71.1 64 75 70 79% 29.94 1013.6
19 15:51 SW 8 10.00 A Few Clouds FEW008 71.1 64 79% 29.95 1013.9
19 14:51 SW 10 G 20 10.00 Partly Cloudy SCT008 72 64 76% 29.97 1014.6
19 13:51 SW 10 10.00 Partly Cloudy SCT009 72 64 76% 29.98 1015.1
19 12:51 S 8 8.00 Fair CLR 75 64 69% 77 29.98 1014.9
19 11:51 SW 6 6.00 Fair with Haze CLR 72 63 73% 29.99 1015.5
19 10:51 SW 7 6.00 Fair with Haze CLR 72 63 72 63 73% 30 1015.7
19 09:51 S 8 5.00 Partly Cloudy with Haze SCT007 71.1 63 76% 30 1015.6
19 08:51 Calm 5.00 Partly Cloudy with Haze SCT007 68 62.1 81% 30 1015.7
19 07:51 Calm 4.00 Fog/Mist OVC004 64.9 62.1 90% 30 1015.8
19 06:51 NW 3 4.00 Fog/Mist OVC003 64 61 90% 29.99 1015.3
19 05:51 Calm 7.00 Partly Cloudy SCT004 64 61 90% 29.97 1014.8
19 04:51 Calm 7.00 A Few Clouds FEW005 64 61 64.9 63 90% 29.97 1014.6
19 03:51 Calm 7.00 Mostly Cloudy BKN004 63 61 93% 29.97 1014.7
19 02:51 Calm 9.00 Partly Cloudy SCT004 64 61 90% 29.97 1014.6
19 01:51 SW 3 10.00 A Few Clouds FEW007 64 61 90% 29.98 1014.9
19 00:51 Calm 10.00 Mostly Cloudy BKN007 64 60.1 87% 30 1015.5
18 23:51 Calm 10.00 Mostly Cloudy BKN007 64 60.1 87% 30 1015.7
18 22:51 S 5 10.00 Overcast OVC004 64 61 72 64 90% 29.99 1015.2
18 21:51 Calm 5.00 Fog/Mist OVC002 64 61 90% 29.98 1015.1
18 20:51 SW 5 8.00 Overcast OVC003 64.9 62.1 90% 29.97 1014.8
18 19:51 S 7 10.00 Overcast OVC005 66 63 90% 29.96 1014.4
18 18:51 SW 9 10.00 A Few Clouds FEW009 69.1 62.1 78% 29.95 1013.8
18 17:51 SW 8 10.00 Partly Cloudy SCT009 70 63 79% 29.94 1013.6
18 16:51 SW 7 10.00 Partly Cloudy SCT009 71.1 64 75 71.1 79% 29.94 1013.8
18 15:51 W 9 10.00 Fair CLR 73 64 74% 29.96 1014.2
18 14:51 SW 9 10.00 A Few Clouds FEW009 72 63 73% 29.98 1014.9
18 13:51 SW 9 10.00 A Few Clouds FEW011 72 63 73% 29.99 1015.3
18 12:51 SW 9 9.00 Fair CLR 73 63 71% 30 1015.5
18 11:51 SW 7 10.00 Fair CLR 73 63 71% 29.99 1015.3
18 10:51 SW 8 10.00 A Few Clouds FEW010 72 63 72 66 73% 29.99 1015.3
18 09:51 Vrbl 6 10.00 Fair CLR 72 63 73% 29.98 1014.9
18 08:51 S 5 10.00 Fair CLR 70 63 79% 29.98 1014.9
18 07:51 SW 5 10.00 Fair CLR 68 62.1 81% 29.97 1014.6
18 06:51 SW 3 10.00 Fair CLR 66 62.1 87% 29.96 1014.2
18 05:51 SW 3 10.00 Fair CLR 66 62.1 87% 29.94 1013.7
18 04:51 Calm 10.00 Fair CLR 66.9 62.1 66.9 66 84% 29.94 1013.5
18 03:51 Calm 10.00 Fair CLR 66.9 62.1 84% 29.93 1013.4
18 02:51 Calm 10.00 Fair CLR 66.9 62.1 84% 29.94 1013.7
18 01:51 Calm 10.00 Fair CLR 66.9 61 81% 29.95 1014.0
18 00:51 Calm 10.00 Fair CLR 66.9 60.1 79% 29.95 1013.9
17 23:51 Calm 10.00 Fair CLR 66 60.1 81% 29.96 1014.3
17 22:51 SW 3 10.00 Fair CLR 66.9 61 75 66.9 81% 29.95 1014.1
17 21:51 SW 5 10.00 Fair CLR 66.9 60.1 79% 29.95 1013.9
17 20:51 SW 6 10.00 Fair CLR 66.9 60.1 79% 29.93 1013.3
17 19:51 SW 8 10.00 Fair CLR 68 61 78% 29.91 1012.6
17 18:51 SW 6 10.00 Fair CLR 70 60.1 71% 29.9 1012.2
17 17:51 SW 10 10.00 Fair CLR 75 62.1 64% 77 29.89 1012.0
17 16:51 SW 8 10.00 Fair CLR 73.9 62.1 75.9 73 67% 29.9 1012.2
17 15:51 SW 10 10.00 Fair CLR 73.9 63 69% 29.92 1013.0
17 14:51 SW 9 10.00 Fair CLR 73.9 63 69% 29.94 1013.8
17 13:51 SW 8 10.00 Fair CLR 73.9 63 69% 29.96 1014.3
17 12:51 SW 8 10.00 Fair CLR 75 63 66% 77 29.98 1015.0
17 11:51 SW 8 10.00 Fair CLR 73.9 63 69% 29.99 1015.3
Date Time (pdt) Wind (mph) Vis. (mi.) Weather Sky Cond. Air Dwpt Max. Min. Relative Humidity Wind Chill (°F) Heat Index (°F) altimeter (in) sea level (mb) 1 hr 3 hr 6 hr
6 hour
Temperature (ºF) Pressure Precipitation (in)